Weather History for Ogallala, NE

Change the Weather History Date:

Wednesday, February 6, 2013

  Actual Average Record
Temperature  
Mean Temperature 46 °F -  
Max Temperature 61 °F 37 °F 66 °F (2009)
Min Temperature 32 °F 10 °F -22 °F (2014)
Degree Days  
Heating Degree Days 18    
Moisture  
Dew Point 25 °F    
Average Humidity 50    
Maximum Humidity 70    
Minimum Humidity 19    
Precipitation  
Precipitation 0.00 in - - ()
Sea Level Pressure  
Sea Level Pressure 29.84 in    
Wind  
Wind Speed 6 mph (NNW)    
Max Wind Speed 17 mph    
Max Gust Speed 21 mph    
Visibility 10 miles    
Events      
Averages and records for this station are not official NWS values.
T = Trace of Precipitation, MM = Missing Value Source: NWS Daily Summary

Daily Weather History Graph

Daily Weather History Graph

Search for Another Location

Airport:

Trip Planner

Search our weather history database for the weather conditions in past years. The results will help you decide how hot, cold, wet, or windy it might be!

Date:

Astronomy

Feb. 06, 2013 Rise Set
Actual Time 6:52 AM MST 5:10 PM MST
Civil Twilight 6:23 AM MST 5:39 PM MST
Nautical Twilight 5:50 AM MST 6:12 PM MST
Astronomical Twilight 5:18 AM MST 6:44 PM MST
Moon 3:39 AM MST (2/6) 1:30 PM MST (2/6)
Length of Visible Light 11h 15m
Length of Day
10h 18m
Waning Crescent, 16% of the Moon is Illuminated
Feb 6
Waning Crescent
Feb 10
New
Feb 17
First Quarter
Feb 25
Full
Mar 4
Last Quarter

Hourly Weather History & Observations

Time (MST) Temp. Windchill Dew Point Humidity Pressure Visibility Wind Dir Wind Speed Gust Speed Precip Events Conditions
12:15 AM 37.8 °F 30.7 °F 23.5 °F 57% 29.86 in 10.0 mi SSW 10.4 mph - N/A   Clear
12:35 AM 36.0 °F 31.1 °F 23.5 °F 61% 29.86 in 10.0 mi West 5.8 mph - N/A   Scattered Clouds
12:55 AM 36.9 °F 32.2 °F 23.7 °F 59% 29.86 in 10.0 mi SW 5.8 mph - N/A   Scattered Clouds
1:15 AM 36.1 °F 33.5 °F 23.5 °F 60% 29.85 in 10.0 mi WSW 3.5 mph - N/A   Clear
1:35 AM 34.9 °F 30.8 °F 23.5 °F 63% 29.85 in 10.0 mi SSW 4.6 mph - N/A   Scattered Clouds
1:55 AM 35.6 °F 30.7 °F 23.9 °F 62% 29.85 in 10.0 mi South 5.8 mph - N/A   Mostly Cloudy
2:15 AM 35.2 °F 29.5 °F 23.9 °F 63% 29.84 in 10.0 mi South 6.9 mph - N/A   Mostly Cloudy
2:35 AM 34.7 °F 29.6 °F 23.7 °F 64% 29.84 in 10.0 mi South 5.8 mph - N/A   Mostly Cloudy
2:55 AM 33.1 °F 28.7 °F 23.5 °F 68% 29.84 in 10.0 mi WSW 4.6 mph - N/A   Mostly Cloudy
3:15 AM 32.2 °F - 23.4 °F 70% 29.83 in 10.0 mi Calm Calm - N/A   Scattered Clouds
3:35 AM 32.4 °F - 23.0 °F 68% 29.82 in 10.0 mi Calm Calm - N/A   Clear
3:55 AM 33.4 °F - 23.4 °F 67% 29.82 in 10.0 mi Calm Calm - N/A   Scattered Clouds
4:15 AM 34.7 °F - 23.5 °F 64% 29.81 in 10.0 mi Calm Calm - N/A   Overcast
4:35 AM 35.1 °F - 23.4 °F 62% 29.80 in 10.0 mi Calm Calm - N/A   Overcast
5:15 AM 36.5 °F 31.0 °F 22.6 °F 57% 29.80 in 10.0 mi SSW 6.9 mph - N/A   Mostly Cloudy
5:35 AM 36.1 °F - 22.8 °F 58% 29.80 in 10.0 mi Calm Calm - N/A   Overcast
5:55 AM 36.5 °F - 23.0 °F 58% 29.79 in 10.0 mi Calm Calm - N/A   Overcast
6:15 AM 35.6 °F - 23.5 °F 62% 29.79 in 10.0 mi Calm Calm - N/A   Overcast
6:35 AM 35.4 °F 30.5 °F 23.0 °F 61% 29.79 in 10.0 mi SSW 5.8 mph - N/A   Overcast
6:55 AM 35.6 °F 32.8 °F 23.4 °F 61% 29.79 in 10.0 mi South 3.5 mph - N/A   Overcast
7:15 AM 35.6 °F 31.7 °F 23.7 °F 62% 29.79 in 10.0 mi SSW 4.6 mph - N/A   Overcast
7:35 AM 35.6 °F - 24.1 °F 63% 29.80 in 10.0 mi Calm Calm - N/A   Mostly Cloudy
7:55 AM 36.3 °F - 23.9 °F 61% 29.80 in 10.0 mi Calm Calm - N/A   Scattered Clouds
8:15 AM 35.6 °F - 23.9 °F 62% 29.80 in 10.0 mi Calm Calm - N/A   Clear
8:35 AM 35.8 °F - 24.4 °F 63% 29.81 in 10.0 mi Calm Calm - N/A   Clear
8:55 AM 37.8 °F 35.3 °F 25.0 °F 60% 29.80 in 10.0 mi West 3.5 mph - N/A   Mostly Cloudy
9:15 AM 39.9 °F - 24.8 °F 55% 29.80 in 10.0 mi Calm Calm - N/A   Mostly Cloudy
9:35 AM 41.7 °F - 24.8 °F 51% 29.80 in 10.0 mi Calm Calm - N/A   Scattered Clouds
9:55 AM 44.1 °F 42.5 °F 25.0 °F 47% 29.80 in 10.0 mi West 3.5 mph - N/A   Mostly Cloudy
10:15 AM 45.9 °F 44.6 °F 25.2 °F 44% 29.80 in 10.0 mi West 3.5 mph - N/A   Mostly Cloudy
10:35 AM 47.7 °F - 25.0 °F 41% 29.80 in 10.0 mi Calm Calm - N/A   Mostly Cloudy
10:55 AM 49.1 °F - 25.0 °F 39% 29.80 in 10.0 mi West 3.5 mph - N/A   Mostly Cloudy
11:15 AM 49.3 °F - 24.6 °F 38% 29.79 in 10.0 mi Calm Calm - N/A   Scattered Clouds
11:35 AM 50.2 °F - 25.2 °F 38% 29.79 in 10.0 mi Calm Calm - N/A   Clear
11:55 AM 53.6 °F - 25.9 °F 34% 29.78 in 10.0 mi Calm Calm - N/A   Scattered Clouds
12:15 PM 54.9 °F - 26.1 °F 33% 29.78 in 10.0 mi Calm Calm - N/A   Scattered Clouds
12:35 PM 57.4 °F - 26.6 °F 31% 29.77 in 10.0 mi NW 3.5 mph - N/A   Scattered Clouds
12:55 PM 60.1 °F - 21.7 °F 23% 29.77 in 10.0 mi North 10.4 mph - N/A   Scattered Clouds
1:15 PM 61.5 °F - 19.6 °F 20% 29.76 in 10.0 mi North 17.3 mph - N/A   Scattered Clouds
1:35 PM 60.6 °F - 18.0 °F 19% 29.77 in 10.0 mi NNW 15.0 mph - N/A   Mostly Cloudy
1:55 PM 60.1 °F - 18.7 °F 20% 29.76 in 10.0 mi North 15.0 mph - N/A   Overcast
2:15 PM 58.3 °F - 19.0 °F 22% 29.77 in 10.0 mi North 11.5 mph - N/A   Overcast
2:35 PM 57.6 °F - 19.9 °F 23% 29.77 in 10.0 mi North 12.7 mph - N/A   Overcast
2:55 PM 56.5 °F - 20.1 °F 24% 29.78 in 10.0 mi North 11.5 mph - N/A   Overcast
3:15 PM 55.2 °F - 20.3 °F 26% 29.79 in 10.0 mi North 9.2 mph - N/A   Overcast
3:35 PM 54.5 °F - 21.0 °F 27% 29.80 in 10.0 mi North 6.9 mph - N/A   Overcast
3:55 PM 53.4 °F - 21.6 °F 29% 29.80 in 10.0 mi North 8.1 mph - N/A   Overcast
4:15 PM 53.2 °F - 20.1 °F 27% 29.80 in 10.0 mi North 11.5 mph - N/A   Overcast
4:35 PM 52.7 °F - 21.2 °F 29% 29.81 in 10.0 mi NNW 8.1 mph - N/A   Overcast
4:55 PM 50.5 °F - 23.9 °F 35% 29.83 in 10.0 mi North 9.2 mph - N/A   Overcast
5:15 PM 48.9 °F - 24.4 °F 38% 29.84 in 10.0 mi North 6.9 mph - N/A   Overcast
5:35 PM 47.7 °F - 25.9 °F 43% 29.85 in 10.0 mi North 6.9 mph - N/A   Overcast
5:55 PM 46.9 °F - 27.3 °F 46% 29.86 in 10.0 mi NNE 3.5 mph - N/A   Overcast
6:15 PM 45.3 °F 42.3 °F 28.0 °F 51% 29.88 in 10.0 mi North 5.8 mph - N/A   Scattered Clouds
6:35 PM 44.2 °F 42.7 °F 28.2 °F 53% 29.89 in 10.0 mi NNW 3.5 mph - N/A   Scattered Clouds
6:55 PM 43.2 °F 38.4 °F 28.9 °F 57% 29.89 in 10.0 mi North 8.1 mph - N/A   Mostly Cloudy
7:15 PM 42.3 °F 36.8 °F 29.3 °F 60% 29.90 in 10.0 mi North 9.2 mph - N/A   Mostly Cloudy
7:35 PM 42.1 °F 35.7 °F 29.7 °F 61% 29.91 in 10.0 mi North 11.5 mph - N/A   Scattered Clouds
7:55 PM 41.9 °F 35.0 °F 30.0 °F 63% 29.92 in 10.0 mi North 12.7 mph - N/A   Clear
8:15 PM 41.4 °F 34.3 °F 30.0 °F 64% 29.93 in 10.0 mi North 12.7 mph - N/A   Mostly Cloudy
8:35 PM 41.9 °F 34.3 °F 29.8 °F 62% 29.94 in 10.0 mi North 15.0 mph - N/A   Overcast
8:55 PM 41.9 °F 34.0 °F 28.2 °F 58% 29.95 in 10.0 mi North 16.1 mph 20.7 mph N/A   Mostly Cloudy
9:15 PM 41.9 °F 34.6 °F 27.3 °F 56% 29.96 in 10.0 mi NNE 13.8 mph - N/A   Mostly Cloudy
9:35 PM 41.2 °F 34.1 °F 27.9 °F 59% 29.97 in 10.0 mi North 12.7 mph - N/A   Overcast
9:55 PM 40.6 °F 33.0 °F 28.2 °F 61% 29.98 in 10.0 mi North 13.8 mph - N/A   Mostly Cloudy
10:15 PM 40.8 °F 33.7 °F 28.4 °F 61% 29.99 in 10.0 mi North 12.7 mph - N/A   Scattered Clouds
10:35 PM 41.9 °F 35.9 °F 27.5 °F 57% 30.00 in 10.0 mi NNE 10.4 mph - N/A   Mostly Cloudy
10:55 PM 41.4 °F 39.4 °F 28.0 °F 59% 30.01 in 10.0 mi East 3.5 mph - N/A   Overcast
11:35 PM 41.0 °F 39.0 °F 27.7 °F 59% 30.01 in 10.0 mi East 3.5 mph - N/A   Scattered Clouds
11:55 PM 41.4 °F 35.7 °F 27.5 °F 58% 30.04 in 10.0 mi North 9.2 mph - N/A   Clear